Sault Sainte Marie, MI

6:31 AM EDT on August 28, 2016 (GMT -0400)
Sault Ste Marie Municipal / Sanderson Field

Weather History for KANJ - November, 2013

Change the Weather History Date:

Friday, November 8, 2013

  Actual Average Record
Temperature  
Mean Temperature 32 °F 37 °F  
Max Temperature 34 °F 43 °F 60 °F (1986)
Min Temperature 30 °F 31 °F 9 °F (1976)
Degree Days  
Heating Degree Days 33 28  
Month to date heating degree days 208 213  
Since 1 July heating degree days 1126 1218  
Moisture  
Dew Point 29 °F    
Average Humidity 81    
Maximum Humidity 92    
Minimum Humidity 69    
Precipitation  
Precipitation 0.15 in 0.11 in 1.20 in (1957)
Month to date precipitation 1.52 0.89  
Year to date precipitation 41.16 27.68  
Snow  
Snow 1.60 in 0.30 in 6.00 in (1973)
Month to date snowfall 3.0 2.3  
Since 1 July snowfall 9.7 3.9  
Snow Depth 1.00 in    
Sea Level Pressure  
Sea Level Pressure 30.12 in    
Wind  
Wind Speed 4 mph (ESE)    
Max Wind Speed 10 mph    
Max Gust Speed 15 mph    
Visibility 7 miles    
Events Fog , Rain , Snow    
T = Trace of Precipitation, MM = Missing Value Source: NWS Daily Summary

Daily Weather History Graph

Daily Weather History Graph

Search for Another Location

Airport or City:

Trip Planner

Search our weather history database for the weather conditions in past years. The results will help you decide how hot, cold, wet, or windy it might be!

Date:

Astronomy

Nov. 08, 2013 Rise Set
Actual Time 7:29 AM EST 5:12 PM EST
Civil Twilight 6:57 AM EST 5:44 PM EST
Nautical Twilight 6:21 AM EST 6:20 PM EST
Astronomical Twilight 5:45 AM EST 6:55 PM EST
Moon 12:24 PM EST (11/8) 10:33 PM EST (11/8)
Length of Visible Light 10h 47m
Length of Day
9h 42m
Waxing Crescent, 33% of the Moon is Illuminated
Nov 8
Waxing Crescent
Nov 10
First Quarter
Nov 17
Full
Nov 25
Last Quarter
Dec 2
New

Hourly Weather History & Observations

Time (EST) Temp. Windchill Dew Point Humidity Pressure Visibility Wind Dir Wind Speed Gust Speed Precip Events Conditions
12:55 AM 32.0 °F - 28.0 °F 85% 30.02 in 9.0 mi Calm Calm - 0.00 in Snow Light Snow
1:55 AM 32.0 °F - 28.9 °F 88% 30.03 in 10.0 mi Calm Calm - 0.00 in Snow Light Snow
2:55 AM 30.9 °F 27.5 °F 28.9 °F 92% 30.05 in 10.0 mi SSW 3.5 mph - 0.00 in   Overcast
3:55 AM 32.0 °F - 28.0 °F 85% 30.06 in 10.0 mi Calm Calm - 0.00 in   Overcast
4:55 AM 34.0 °F 28.0 °F 24.1 °F 67% 30.07 in 10.0 mi NNW 6.9 mph - 0.00 in   Overcast
5:55 AM 34.0 °F 31.0 °F 25.0 °F 70% 30.09 in 6.0 mi North 3.5 mph - 0.00 in Snow Light Snow
6:55 AM 33.1 °F 27.7 °F 25.0 °F 72% 30.11 in 9.0 mi NW 5.8 mph - 0.00 in Snow Light Snow
7:55 AM 33.1 °F 30.0 °F 25.0 °F 72% 30.13 in 9.0 mi NW 3.5 mph - 0.00 in   Overcast
8:55 AM 32.0 °F 28.7 °F 27.0 °F 82% 30.15 in 9.0 mi South 3.5 mph - 0.00 in   Overcast
9:55 AM 34.0 °F - 30.0 °F 85% 30.17 in 10.0 mi Calm Calm - 0.00 in Rain Light Rain
10:55 AM 34.0 °F 28.8 °F 28.9 °F 82% 30.17 in 10.0 mi SSW 5.8 mph - 0.00 in   Overcast
11:55 AM 33.1 °F 27.7 °F 30.9 °F 92% 30.17 in 6.0 mi SSW 5.8 mph - 0.00 in Snow Light Snow
12:02 PM 33.1 °F 27.7 °F 30.0 °F 89% 30.15 in 5.0 mi SSW 5.8 mph - 0.00 in Snow Light Snow
12:06 PM 33.1 °F 27.7 °F 30.9 °F 92% 30.15 in 1.5 mi SW 5.8 mph - 0.00 in Snow Light Snow
12:14 PM 33.1 °F 28.7 °F 30.9 °F 92% 30.14 in 0.5 mi South 4.6 mph - 0.02 in Fog , Snow Snow
12:24 PM 33.1 °F 30.0 °F 30.9 °F 92% 30.14 in 0.2 mi ESE 3.5 mph - 0.05 in Fog , Snow Heavy Snow
12:55 PM 30.9 °F 25.2 °F 28.9 °F 92% 30.17 in 0.8 mi ENE 5.8 mph - 0.09 in Snow Light Snow
12:58 PM 30.9 °F 26.2 °F 28.9 °F 92% 30.14 in 1.0 mi East 4.6 mph - 0.00 in Snow Light Snow
1:19 PM 30.9 °F 26.2 °F 28.9 °F 92% 30.13 in 0.8 mi ENE 4.6 mph - 0.01 in Snow Light Snow
1:52 PM 30.2 °F 26.7 °F 28.4 °F 93% 30.13 in 0.2 mi East 3.5 mph - 0.04 in Fog , Snow Heavy Snow
1:55 PM 30.9 °F 27.5 °F 28.9 °F 92% 30.15 in 0.2 mi East 3.5 mph - 0.04 in Fog , Snow Snow
2:12 PM 30.9 °F 27.5 °F 28.9 °F 92% 30.12 in 1.0 mi East 3.5 mph - 0.02 in Snow Light Snow
2:22 PM 30.9 °F 27.5 °F 28.9 °F 92% 30.13 in 1.8 mi East 3.5 mph - 0.02 in Snow Light Snow
2:24 PM 30.9 °F 27.5 °F 28.9 °F 92% 30.13 in 2.0 mi East 3.5 mph - 0.02 in Snow Light Snow
2:28 PM 30.9 °F 27.5 °F 28.9 °F 92% 30.13 in 3.0 mi East 3.5 mph - 0.02 in Snow Light Snow
2:55 PM 32.0 °F 28.7 °F 30.0 °F 92% 30.15 in 9.0 mi East 3.5 mph - 0.02 in   Overcast
3:28 PM 32.0 °F - 30.0 °F 92% 30.13 in 9.0 mi Calm Calm - 0.00 in   Overcast
3:55 PM 33.1 °F 28.7 °F 30.0 °F 89% 30.14 in 10.0 mi East 4.6 mph - 0.00 in   Overcast
4:55 PM 32.0 °F - 30.0 °F 92% 30.14 in 9.0 mi Calm Calm - N/A   Overcast
5:55 PM 30.9 °F 27.5 °F 28.9 °F 92% 30.14 in 8.0 mi East 3.5 mph - N/A   Partly Cloudy
6:55 PM 30.9 °F 27.5 °F 28.9 °F 92% 30.18 in 10.0 mi ESE 3.5 mph - N/A   Clear
7:55 PM 30.9 °F 27.5 °F 28.9 °F 92% 30.12 in 10.0 mi ESE 3.5 mph - N/A   Clear
8:55 PM 30.9 °F 27.5 °F 28.9 °F 92% 30.12 in 10.0 mi ESE 3.5 mph - N/A   Clear
9:55 PM 32.0 °F 28.7 °F 30.0 °F 92% 30.12 in 10.0 mi ESE 3.5 mph - N/A   Partly Cloudy
10:55 PM 32.0 °F 28.7 °F 30.0 °F 92% 30.11 in 10.0 mi ESE 3.5 mph - N/A   Overcast
11:55 PM 33.1 °F 30.0 °F 30.9 °F 92% 30.08 in 10.0 mi ESE 3.5 mph - N/A   Overcast